Regional Weather Roundup
Issued by NWS

Home | Current Version | Previous Version | Text Only | Print | Product List | Glossary On
Versions: 1 2 3 4 5 6 7 8 9 10 11 12 13 14 15 16 17 18 19 20 21 22 23 24 25 26 27 28 29 30 31 32 33 34 35 36 37 38 39 40 41 42 43 44 45 46 47 48 49 50
000
ASUS43 KMKX 232210
RWRWI

WISCONSIN REGIONAL WEATHER ROUNDUP
NATIONAL WEATHER SERVICE MILWAUKEE/SULLIVAN WI
400 PM CST MON JAN 23 2017

NOTE: "FAIR" INDICATES FEW OR NO CLOUDS BELOW 12,000 FEET WITH NO
SIGNIFICANT WEATHER AND/OR OBSTRUCTIONS TO VISIBILITY.

WIZ001-002-006>008-014>016-023>028-232300-
NORTHWEST WISCONSIN

CITY           SKY/WX    TMP DP  RH WIND       PRES   REMARKS
SUPERIOR ARPT  CLOUDY    36  35  95 NW5       29.79S WCI  32
ASHLAND        CLOUDY    37  35  92 W5        29.79R WCI  33
HAYWARD        CLOUDY    36  32  85 CALM      29.79R
SIREN          CLOUDY    35  34  96 CALM      29.80S
CUMBERLAND     CLOUDY    32  32 100 W3        29.79S
RICE LAKE      MIX PCPN  34  33  96 W3        29.82R
CHETEK         CLOUDY    34  33  94 W3        29.80S
LADYSMITH      CLOUDY    36  36  99 W6        29.80R WCI  31
EAU CLAIRE     CLOUDY    34  34 100 W3        29.80S
MENOMONIE        N/A    N/A N/A N/A MISG        N/A
NEW RICHMOND   CLOUDY    34  32  94 W5        29.81S FOG     WCI  30
OSCEOLA        CLOUDY    35  35 100 W5        29.83F WCI  31
$$

WIZ003>005-009-010-017-018-232300-
NORTH CENTRAL WISCONSIN

CITY           SKY/WX    TMP DP  RH WIND       PRES   REMARKS
MANITOWISH WTR CLOUDY    34  34 100 CALM      29.74S FOG
ARBOR VITAE    CLOUDY    37  35  95 CALM      29.74S
WOODRUFF       CLOUDY    37  35  95 CALM      29.74S
RHINELANDER    CLOUDY    37  34  89 W6        29.74R WCI  32
EAGLE RIVER    CLOUDY    35  35  99 W3        29.74R
LAND O LAKES   CLOUDY    37  35  94 W3        29.76R
PHILLIPS       CLOUDY    35  35 100 CALM      29.75S
TOMAHAWK       CLOUDY    35  33  91 W3        29.76R
MEDFORD        CLOUDY    33  33  99 W6        29.77R FOG     WCI  28
MERRILL        CLOUDY    37  34  90 W3          N/A
$$

WIZ029-030-035-036-043>047-232300-
CENTRAL WISCONSIN

CITY           SKY/WX    TMP DP  RH WIND       PRES   REMARKS
WAUSAU         CLOUDY    35  33  92 W7        29.75R WCI  29
MOSINEE        CLOUDY    36  36 100 W5        29.77R WCI  32
MARSHFIELD     FOG       34  33  96 W5        29.77R VSB 1/4 WCI  30
STEVENS POINT  CLOUDY    35  34  96 CALM      29.78R
WAUPACA        CLOUDY    39  35  83 CALM      29.77R
WAUTOMA        CLOUDY    36  34  92 W6        29.79R WCI  31
WISC RAPIDS    CLOUDY    36  35  96 NW6       29.79R WCI  31
CAMP DOUGLAS   CLOUDY    36  36 100 NW3       29.79S
$$

WIZ011>013-019>022-031-037>040-048>050-232300-
NORTHEAST WISCONSIN

CITY           SKY/WX    TMP DP  RH WIND       PRES   REMARKS
ANTIGO         CLOUDY    36  32  87 W5        29.75R WCI  32
SHAWANO        CLOUDY    41  35  81 CALM      29.77R
OCONTO         CLOUDY    37  35  94 N3        29.76R
STURGEON BAY   NOT AVBL
GREEN BAY      CLOUDY    39  36  89 NW3       29.77R
MANITOWOC      CLOUDY    38  36  92 MISG      29.76R
APPLETON       CLOUDY    37  37 100 SW8       29.75R WCI  31
CLINTONVILLE   CLOUDY    37  34  87 CALM      29.76R
OSHKOSH        CLOUDY    37  34  89 W5        29.76R WCI  33
$$

WIZ032>034-041-042-053>061-232300-
SOUTHWEST WISCONSIN

CITY           SKY/WX    TMP DP  RH WIND       PRES   REMARKS
LA CROSSE      CLOUDY    38  33  82 NW3       29.81S
SPARTA         CLOUDY    35  34  96 W5        29.81S WCI  31
VIROQUA        CLOUDY    34  34 100 CALM      29.79S
BOSCOBEL       CLOUDY    39  31  72 NW5       29.82R
PRAIRIE DU CHI CLOUDY    37  32  80 NW6       29.81S WCI  33
PLATTEVILLE    CLOUDY    37  37  97 NW5       29.80S WCI  34
$$

WIZ056-057-062-063-064-067-068-232300-
SOUTH CENTRAL WISCONSIN

CITY           SKY/WX    TMP DP  RH WIND       PRES   REMARKS
REEDSBURG      CLOUDY    37  35  94 W5        29.78S WCI  33
BARABOO/DELLS  CLOUDY    37  35  92 NW3       29.78S
LONE ROCK      CLOUDY    39  33  79 W6        29.80S WCI  35
MINERAL POINT  CLOUDY    37  34  87 NW7       29.79R WCI  32
MADISON        CLOUDY    37  35  92 NW7       29.78S FOG     WCI  32
MIDDLETON      CLOUDY    39  39 100 NW6       29.78S WCI  35
WATERTOWN      CLOUDY    37  37  97 NW5       29.77S WCI  34
MONROE         CLOUDY    37  36  93 W7        29.77S WCI  32
JANESVILLE     CLOUDY    43  37  81 NW7       29.77R
$$

WIZ051-052-058>065-066-070>072-232300-
SOUTHEAST WISCONSIN

CITY           SKY/WX    TMP DP  RH WIND       PRES   REMARKS
MILWAUKEE      CLOUDY    43  36  76 NW9       29.76R
WAUKESHA       CLOUDY    36  36 100 NW9       29.77R WCI  29
MILWAUKEE/TIMM CLOUDY    39  34  81 W9        29.76S WCI  33
RACINE         CLOUDY    42  36  79 CALM      29.76R
KENOSHA        CLOUDY    42  37  82 NW6       29.75R
FOND DU LAC    CLOUDY    38  34  85 W5        29.77R WCI  34
SHEBOYGAN      MOCLDY    38  34  85 NW9       29.75R WCI  31
WEST BEND      CLOUDY    37  36  93 NW7       29.76R WCI  32
JUNEAU         CLOUDY    37  35  93 CALM      29.78R
$$

LSZ147-162-232300-
LAKE SUPERIOR

STATION/POSITION TIME  TEMP    WIND        PRES    WAVE
                       AIR SEA DIR/SP/G            HT/PER
                 (UTC) (F)     (DEG/KT/KT) (MB)    (FT/S)
DEVILS ISLAND    2200   34     240/  8/  9 1009.4R
PORT WING        2130   36     250/  4/  6 1009.1R
SAXON HARBOR     2140   35      CALM  /  2 1008.1S
$$

LMZ867-665-643>646-232300-
LAKE MICHIGAN

STATION/POSITION TIME  TEMP    WIND        PRES    WAVE
                       AIR SEA DIR/SP/G            HT/PER
                 (UTC) (F)     (DEG/KT/KT) (MB)    (FT/S)
NORTHPORT PIER   2140   33     330/  5/  7 1007.5S
SISTER BAY       2050   34        CALM       N/A
KEWAUNEE LAKESHO 2148   37     330/  4/  7 1007.2R
SHEBOYGAN LAKESH 2200   40     320/  7/  8 1007.8R
PORT WASHINGTON  2130   42     310/  5/  8 1008.5R
KENOSHA   LAKESH 2200   38     350/  3/  4 1007.8
$$

TC  - TEMPERATURE IN CELSIUS
VSB - VISIBILITY IN STATUTE MILES
WCI - WIND CHILL INDEX
HX  - HEAT INDEX




USA.gov is the U.S. government's official web portal to all federal, state and local government web resources and services.